| time (UTC) | temp F | wind direction | speed MPH | gust MPH | rain 1hr in | rain 24hr in | rain mn in | humidity % | barometer mb |
| 20260505003719 | 73 | 149 | 0.0 | 0.0 | 0.00 | 0.00 | 0.00 | 55 | 1006.8 |
| 20260505003217 | 73 | 149 | 0.0 | 0.0 | 0.00 | 0.00 | 0.00 | 54 | 1006.9 |
| 20260505002712 | 73 | 150 | 0.0 | 0.0 | 0.00 | 0.00 | 0.00 | 54 | 1007.0 |
| 20260505002210 | 74 | 146 | 0.0 | 0.0 | 0.00 | 0.00 | 0.00 | 53 | 1007.0 |
| 20260505001707 | 74 | 151 | 0.0 | 0.0 | 0.00 | 0.00 | 0.00 | 53 | 1007.2 |
| 20260505001205 | 74 | 147 | 0.0 | 0.0 | 0.00 | 0.00 | 0.00 | 52 | 1007.1 |
| 20260505000702 | 75 | 148 | 2.0 | 3.0 | 0.00 | 0.00 | 0.00 | 52 | 1006.9 |
| 20260505000200 | 75 | 183 | 4.0 | 5.0 | 0.00 | 0.00 | 0.00 | 52 | 1007.0 |
| 20260504235656 | 75 | 155 | 0.0 | 0.0 | 0.00 | 0.00 | 0.00 | 54 | 1007.1 |
| 20260504235152 | 75 | 153 | 0.0 | 0.0 | 0.00 | 0.00 | 0.00 | 54 | 1007.2 |
| 20260504234650 | 75 | 152 | 0.0 | 1.0 | 0.00 | 0.00 | 0.00 | 52 | 1007.4 |
| 20260504234147 | 76 | 130 | 1.0 | 1.0 | 0.00 | 0.00 | 0.00 | 51 | 1007.5 |
| 20260504233642 | 76 | 138 | 1.0 | 1.0 | 0.00 | 0.00 | 0.00 | 51 | 1007.4 |
| 20260504233138 | 76 | 86 | 2.0 | 3.0 | 0.00 | 0.00 | 0.00 | 50 | 1007.4 |
| 20260504232637 | 77 | 153 | 0.0 | 1.0 | 0.00 | 0.00 | 0.00 | 51 | 1007.7 |
| 20260504232133 | 77 | 153 | 0.0 | 0.0 | 0.00 | 0.00 | 0.00 | 50 | 1007.5 |
| 20260504231630 | 77 | 145 | 2.0 | 3.0 | 0.00 | 0.00 | 0.00 | 50 | 1007.6 |
| 20260504231126 | 77 | 1 | 2.0 | 3.0 | 0.00 | 0.00 | 0.00 | 48 | 1007.6 |
| 20260504230622 | 77 | 190 | 3.0 | 4.0 | 0.00 | 0.00 | 0.00 | 48 | 1007.6 |
| 20260504230121 | 77 | 274 | 5.0 | 6.0 | 0.00 | 0.00 | 0.00 | 46 | 1007.8 |
| 20260504225619 | 77 | 164 | 2.0 | 4.0 | 0.00 | 0.00 | 0.00 | 49 | 1007.7 |
| 20260504225115 | 78 | 192 | 2.0 | 3.0 | 0.00 | 0.00 | 0.00 | 47 | 1007.6 |
| 20260504224612 | 78 | 154 | 4.0 | 6.0 | 0.00 | 0.00 | 0.00 | 47 | 1007.9 |
| 20260504224109 | 78 | 184 | 3.0 | 4.0 | 0.00 | 0.00 | 0.00 | 48 | 1007.9 |
| 20260504223606 | 79 | 188 | 5.0 | 6.0 | 0.00 | 0.00 | 0.00 | 47 | 1007.8 |
| 20260504223101 | 79 | 195 | 5.0 | 6.0 | 0.00 | 0.00 | 0.00 | 45 | 1008.0 |
| 20260504222559 | 80 | 196 | 2.0 | 3.0 | 0.00 | 0.00 | 0.00 | 46 | 1007.9 |
| 20260504222056 | 80 | 184 | 1.0 | 1.0 | 0.00 | 0.00 | 0.00 | 47 | 1008.1 |
| 20260504221553 | 79 | 110 | 4.0 | 8.0 | 0.00 | 0.00 | 0.00 | 45 | 1008.0 |
| 20260504221049 | 80 | 198 | 4.0 | 6.0 | 0.00 | 0.00 | 0.00 | 44 | 1008.0 |
| 20260504220546 | 80 | 146 | 2.0 | 3.0 | 0.00 | 0.00 | 0.00 | 46 | 1007.9 |
| 20260504220043 | 81 | 206 | 4.0 | 6.0 | 0.00 | 0.00 | 0.00 | 44 | 1007.8 |
| 20260504215539 | 80 | 153 | 2.0 | 3.0 | 0.00 | 0.00 | 0.00 | 45 | 1008.2 |
| 20260504215037 | 81 | 256 | 4.0 | 4.0 | 0.00 | 0.00 | 0.00 | 45 | 1007.9 |
| 20260504214533 | 80 | 141 | 3.0 | 4.0 | 0.00 | 0.00 | 0.00 | 45 | 1008.1 |
| 20260504214030 | 78 | 201 | 2.0 | 3.0 | 0.00 | 0.00 | 0.00 | 52 | 1007.9 |
| 20260504213526 | 78 | 210 | 2.0 | 4.0 | 0.00 | 0.00 | 0.00 | 46 | 1008.4 |
| 20260504213023 | 80 | 214 | 7.0 | 8.0 | 0.00 | 0.00 | 0.00 | 44 | 1008.2 |
| 20260504212519 | 80 | 182 | 4.0 | 5.0 | 0.00 | 0.00 | 0.00 | 45 | 1008.3 |
| 20260504212017 | 80 | 188 | 6.0 | 9.0 | 0.00 | 0.00 | 0.00 | 45 | 1008.4 |
| 20260504211513 | 80 | 229 | 4.0 | 8.0 | 0.00 | 0.00 | 0.00 | 44 | 1008.4 |
| 20260504211011 | 80 | 243 | 5.0 | 8.0 | 0.00 | 0.00 | 0.00 | 47 | 1008.2 |
| 20260504210508 | 80 | 248 | 10.0 | 11.0 | 0.00 | 0.00 | 0.00 | 42 | 1008.4 |
| 20260504210004 | 81 | 267 | 5.0 | 6.0 | 0.00 | 0.00 | 0.00 | 46 | 1008.5 |
| 20260504205502 | 81 | 164 | 3.0 | 4.0 | 0.00 | 0.00 | 0.00 | 44 | 1008.6 |
| 20260504205000 | 80 | 151 | 5.0 | 6.0 | 0.00 | 0.00 | 0.00 | 46 | 1008.6 |
| 20260504204458 | 80 | 222 | 6.0 | 9.0 | 0.00 | 0.00 | 0.00 | 45 | 1008.9 |
| 20260504203957 | 80 | 239 | 3.0 | 4.0 | 0.00 | 0.00 | 0.00 | 44 | 1008.9 |
| 20260504203454 | 79 | 133 | 3.0 | 5.0 | 0.00 | 0.00 | 0.00 | 45 | 1008.8 |
| 20260504202950 | 80 | 169 | 6.0 | 6.0 | 0.00 | 0.00 | 0.00 | 43 | 1009.1 |
| 20260504202446 | 80 | 243 | 4.0 | 6.0 | 0.00 | 0.00 | 0.00 | 47 | 1009.2 |
| 20260504201943 | 80 | 193 | 4.0 | 6.0 | 0.00 | 0.00 | 0.00 | 44 | 1009.3 |
| 20260504201441 | 80 | 212 | 1.0 | 4.0 | 0.00 | 0.00 | 0.00 | 48 | 1009.2 |
| 20260504200938 | 79 | 195 | 9.0 | 12.0 | 0.00 | 0.00 | 0.00 | 43 | 1009.3 |
| 20260504200435 | 79 | 211 | 2.0 | 3.0 | 0.00 | 0.00 | 0.00 | 46 | 1009.3 |
| 20260504195931 | 80 | 244 | 6.0 | 9.0 | 0.00 | 0.00 | 0.00 | 43 | 1009.5 |
| 20260504195427 | 80 | 160 | 3.0 | 5.0 | 0.00 | 0.00 | 0.00 | 46 | 1009.5 |
| 20260504194924 | 79 | 208 | 8.0 | 11.0 | 0.00 | 0.00 | 0.00 | 42 | 1009.6 |
| 20260504194420 | 80 | 208 | 6.0 | 12.0 | 0.00 | 0.00 | 0.00 | 42 | 1009.8 |
| 20260504193916 | 80 | 227 | 5.0 | 6.0 | 0.00 | 0.00 | 0.00 | 46 | 1009.9 |
| 20260504193414 | 80 | 216 | 8.0 | 12.0 | 0.00 | 0.00 | 0.00 | 43 | 1010.2 |
| 20260504192912 | 79 | 180 | 6.0 | 6.0 | 0.00 | 0.00 | 0.00 | 44 | 1009.9 |
| 20260504192409 | 79 | 152 | 6.0 | 11.0 | 0.00 | 0.00 | 0.00 | 43 | 1010.2 |
| 20260504191908 | 79 | 207 | 10.0 | 15.0 | 0.00 | 0.00 | 0.00 | 43 | 1010.1 |
| 20260504191405 | 79 | 255 | 5.0 | 6.0 | 0.00 | 0.00 | 0.00 | 43 | 1010.2 |
| 20260504190900 | 80 | 117 | 5.0 | 8.0 | 0.00 | 0.00 | 0.00 | 44 | 1010.3 |
| 20260504190356 | 79 | 171 | 4.0 | 5.0 | 0.00 | 0.00 | 0.00 | 44 | 1010.2 |
| 20260504185853 | 79 | 239 | 5.0 | 5.0 | 0.00 | 0.00 | 0.00 | 42 | 1010.6 |
| 20260504185350 | 78 | 203 | 6.0 | 9.0 | 0.00 | 0.00 | 0.00 | 44 | 1010.3 |
| 20260504184846 | 78 | 89 | 4.0 | 6.0 | 0.00 | 0.00 | 0.00 | 43 | 1010.6 |
| 20260504184342 | 78 | 220 | 6.0 | 8.0 | 0.00 | 0.00 | 0.00 | 45 | 1010.8 |
| 20260504183838 | 78 | 247 | 6.0 | 8.0 | 0.00 | 0.00 | 0.00 | 45 | 1010.7 |
| 20260504183336 | 78 | 207 | 4.0 | 5.0 | 0.00 | 0.00 | 0.00 | 46 | 1010.9 |
| 20260504182833 | 78 | 206 | 8.0 | 13.0 | 0.00 | 0.00 | 0.00 | 44 | 1010.9 |
| 20260504182331 | 78 | 207 | 6.0 | 9.0 | 0.00 | 0.00 | 0.00 | 44 | 1010.9 |
| 20260504181827 | 78 | 161 | 3.0 | 5.0 | 0.00 | 0.00 | 0.00 | 43 | 1010.4 |
| 20260504181325 | 79 | 146 | 5.0 | 6.0 | 0.00 | 0.00 | 0.00 | 44 | 1010.7 |
| 20260504180824 | 78 | 137 | 2.0 | 4.0 | 0.00 | 0.00 | 0.00 | 47 | 1010.6 |
| 20260504180322 | 78 | 222 | 7.0 | 9.0 | 0.00 | 0.00 | 0.00 | 44 | 1010.9 |
| 20260504175820 | 77 | 232 | 2.0 | 4.0 | 0.00 | 0.00 | 0.00 | 49 | 1011.0 |
| 20260504175316 | 77 | 207 | 7.0 | 9.0 | 0.00 | 0.00 | 0.00 | 44 | 1011.1 |
| 20260504174815 | 78 | 194 | 8.0 | 9.0 | 0.00 | 0.00 | 0.00 | 43 | 1011.2 |
| 20260504174311 | 77 | 194 | 5.0 | 6.0 | 0.00 | 0.00 | 0.00 | 45 | 1011.3 |
| 20260504173808 | 77 | 219 | 8.0 | 11.0 | 0.00 | 0.00 | 0.00 | 44 | 1011.5 |
| 20260504173305 | 77 | 235 | 4.0 | 6.0 | 0.00 | 0.00 | 0.00 | 44 | 1011.7 |
| 20260504172802 | 76 | 164 | 3.0 | 5.0 | 0.00 | 0.00 | 0.00 | 45 | 1011.8 |
| 20260504172259 | 76 | 250 | 12.0 | 16.0 | 0.00 | 0.00 | 0.00 | 43 | 1011.9 |
| 20260504171754 | 77 | 241 | 9.0 | 15.0 | 0.00 | 0.00 | 0.00 | 44 | 1012.0 |
| 20260504171252 | 77 | 192 | 10.0 | 12.0 | 0.00 | 0.00 | 0.00 | 44 | 1011.7 |
| 20260504170749 | 77 | 193 | 4.0 | 5.0 | 0.00 | 0.00 | 0.00 | 45 | 1011.7 |
| 20260504170246 | 76 | 242 | 12.0 | 16.0 | 0.00 | 0.00 | 0.00 | 45 | 1011.9 |
| 20260504160204 | 74 | 246 | 4.0 | 5.0 | 0.00 | 0.00 | 0.00 | 51 | 1012.5 |
| 20260504151132 | 72 | 263 | 12.0 | 16.0 | 0.00 | 0.00 | 0.00 | 51 | 1012.7 |
| 20260504150630 | 73 | 193 | 8.0 | 11.0 | 0.00 | 0.00 | 0.00 | 53 | 1012.6 |
| 20260504150126 | 72 | 255 | 9.0 | 13.0 | 0.00 | 0.00 | 0.00 | 53 | 1012.6 |
| 20260504141055 | 69 | 216 | 3.0 | 4.0 | 0.00 | 0.00 | 0.00 | 62 | 1012.9 |
| 20260504140551 | 69 | 169 | 2.0 | 3.0 | 0.00 | 0.00 | 0.00 | 62 | 1013.0 |
| 20260504130516 | 65 | 194 | 3.0 | 4.0 | 0.00 | 0.00 | 0.00 | 68 | 1013.0 |
| 20260504110403 | 52 | 132 | 0.0 | 0.0 | 0.00 | 0.00 | 0.00 | 95 | 1012.0 |
| 20260504100320 | 53 | 131 | 0.0 | 0.0 | 0.00 | 0.00 | 0.00 | 93 | 1012.4 |
| 20260504081714 | 56 | 143 | 0.0 | 0.0 | 0.00 | 0.00 | 0.00 | 88 | 1012.5 |
| 20260504081210 | 57 | 138 | 0.0 | 0.0 | 0.00 | 0.00 | 0.00 | 86 | 1012.6 |
| 20260504080706 | 58 | 152 | 0.0 | 0.0 | 0.00 | 0.00 | 0.00 | 84 | 1012.6 |
| 20260504080203 | 57 | 161 | 0.0 | 0.0 | 0.00 | 0.00 | 0.00 | 86 | 1012.6 |
| 20260504070131 | 57 | 144 | 0.0 | 0.0 | 0.00 | 0.00 | 0.00 | 87 | 1013.0 |
| 20260504050520 | 61 | 163 | 0.0 | 0.0 | 0.00 | 0.00 | 0.00 | 76 | 1013.5 |
| 20260504050016 | 62 | 147 | 0.0 | 1.0 | 0.00 | 0.00 | 0.00 | 76 | 1013.3 |
| 20260504045513 | 60 | 190 | 1.0 | 1.0 | 0.00 | 0.00 | 0.00 | 76 | 1013.5 |
| 20260504045008 | 61 | 144 | 0.0 | 1.0 | 0.00 | 0.00 | 0.00 | 78 | 1013.5 |
| 20260504044506 | 61 | 140 | 0.0 | 1.0 | 0.00 | 0.00 | 0.00 | 77 | 1013.4 |
| 20260504044003 | 61 | 136 | 0.0 | 1.0 | 0.00 | 0.00 | 0.00 | 78 | 1013.4 |
| 20260504043500 | 60 | 162 | 0.0 | 0.0 | 0.00 | 0.00 | 0.00 | 80 | 1013.4 |
| 20260504042958 | 60 | 218 | 0.0 | 1.0 | 0.00 | 0.00 | 0.00 | 81 | 1013.3 |
| 20260504042454 | 60 | 150 | 0.0 | 0.0 | 0.00 | 0.00 | 0.00 | 82 | 1013.5 |
| 20260504041951 | 59 | 140 | 0.0 | 0.0 | 0.00 | 0.00 | 0.00 | 83 | 1013.7 |
| 20260504041447 | 60 | 150 | 0.0 | 0.0 | 0.00 | 0.00 | 0.00 | 82 | 1013.6 |
| 20260504040943 | 59 | 129 | 0.0 | 0.0 | 0.00 | 0.00 | 0.00 | 82 | 1013.7 |
| 20260504040441 | 60 | 147 | 0.0 | 0.0 | 0.00 | 0.00 | 0.00 | 81 | 1013.8 |
| 20260504035936 | 60 | 134 | 0.0 | 0.0 | 0.00 | 0.00 | 0.00 | 79 | 1013.8 |
| 20260504035434 | 60 | 150 | 0.0 | 0.0 | 0.00 | 0.00 | 0.00 | 81 | 1013.8 |
| 20260504034931 | 59 | 127 | 0.0 | 0.0 | 0.00 | 0.00 | 0.00 | 82 | 1013.7 |
| 20260504034428 | 59 | 128 | 1.0 | 1.0 | 0.00 | 0.00 | 0.00 | 81 | 1013.8 |
| 20260504033925 | 60 | 159 | 0.0 | 1.0 | 0.00 | 0.00 | 0.00 | 80 | 1013.6 |
| 20260504033423 | 60 | 143 | 0.0 | 1.0 | 0.00 | 0.00 | 0.00 | 80 | 1013.7 |
| 20260504032920 | 60 | 161 | 0.0 | 0.0 | 0.00 | 0.00 | 0.00 | 79 | 1013.8 |
| 20260504032417 | 60 | 143 | 0.0 | 0.0 | 0.00 | 0.00 | 0.00 | 80 | 1013.8 |
| 20260504031913 | 60 | 143 | 0.0 | 0.0 | 0.00 | 0.00 | 0.00 | 80 | 1013.7 |
| 20260504031411 | 60 | 148 | 0.0 | 0.0 | 0.00 | 0.00 | 0.00 | 79 | 1013.9 |
| 20260504030907 | 60 | 158 | 0.0 | 0.0 | 0.00 | 0.00 | 0.00 | 79 | 1013.8 |
| 20260504030404 | 61 | 149 | 0.0 | 0.0 | 0.00 | 0.00 | 0.00 | 79 | 1013.8 |
| 20260504025900 | 61 | 144 | 0.0 | 0.0 | 0.00 | 0.00 | 0.00 | 79 | 1013.9 |
| 20260504025357 | 61 | 145 | 0.0 | 0.0 | 0.00 | 0.00 | 0.00 | 80 | 1013.6 |
| 20260504024854 | 61 | 145 | 0.0 | 0.0 | 0.00 | 0.00 | 0.00 | 79 | 1013.7 |
| 20260504024350 | 62 | 144 | 0.0 | 0.0 | 0.00 | 0.00 | 0.00 | 78 | 1013.8 |
| 20260504023848 | 62 | 149 | 0.0 | 0.0 | 0.00 | 0.00 | 0.00 | 77 | 1013.6 |
| 20260504023344 | 62 | 154 | 0.0 | 0.0 | 0.00 | 0.00 | 0.00 | 76 | 1013.6 |
| 20260504022839 | 63 | 147 | 0.0 | 0.0 | 0.00 | 0.00 | 0.00 | 74 | 1013.3 |
| 20260504022337 | 64 | 146 | 0.0 | 0.0 | 0.00 | 0.00 | 0.00 | 70 | 1013.4 |
| 20260504021833 | 64 | 143 | 0.0 | 0.0 | 0.00 | 0.00 | 0.00 | 69 | 1013.7 |
| 20260504021331 | 65 | 142 | 0.0 | 0.0 | 0.00 | 0.00 | 0.00 | 66 | 1013.6 |
| 20260504020828 | 66 | 140 | 0.0 | 0.0 | 0.00 | 0.00 | 0.00 | 64 | 1013.4 |
| 20260504020324 | 65 | 146 | 0.0 | 0.0 | 0.00 | 0.00 | 0.00 | 65 | 1013.5 |
| 20260504015820 | 65 | 134 | 0.0 | 0.0 | 0.00 | 0.00 | 0.00 | 64 | 1013.5 |
| 20260504015317 | 66 | 148 | 0.0 | 0.0 | 0.00 | 0.00 | 0.00 | 64 | 1013.6 |
| 20260504014813 | 68 | 159 | 0.0 | 0.0 | 0.00 | 0.00 | 0.00 | 60 | 1013.4 |
| 20260504014309 | 68 | 143 | 0.0 | 0.0 | 0.00 | 0.00 | 0.00 | 56 | 1013.3 |
| 20260504013807 | 69 | 143 | 0.0 | 0.0 | 0.00 | 0.00 | 0.00 | 55 | 1013.5 |
| 20260504013305 | 69 | 144 | 1.0 | 1.0 | 0.00 | 0.00 | 0.00 | 55 | 1013.5 |
| 20260504012800 | 70 | 146 | 0.0 | 0.0 | 0.00 | 0.00 | 0.00 | 54 | 1013.2 |
| 20260504012259 | 70 | 137 | 0.0 | 0.0 | 0.00 | 0.00 | 0.00 | 52 | 1013.4 |
| 20260504011755 | 70 | 147 | 0.0 | 1.0 | 0.00 | 0.00 | 0.00 | 53 | 1013.2 |
| 20260504011252 | 71 | 147 | 0.0 | 0.0 | 0.00 | 0.00 | 0.00 | 53 | 1013.3 |
| 20260504010748 | 71 | 148 | 0.0 | 0.0 | 0.00 | 0.00 | 0.00 | 52 | 1013.1 |
| 20260504010244 | 71 | 141 | 0.0 | 0.0 | 0.00 | 0.00 | 0.00 | 52 | 1013.1 |
| 20260504005741 | 71 | 141 | 1.0 | 1.0 | 0.00 | 0.00 | 0.00 | 51 | 1013.3 |
| 20260504005238 | 71 | 144 | 0.0 | 0.0 | 0.00 | 0.00 | 0.00 | 51 | 1013.1 |
| 20260504004736 | 72 | 150 | 0.0 | 0.0 | 0.00 | 0.00 | 0.00 | 52 | 1013.1 |
| 20260504004232 | 73 | 145 | 0.0 | 1.0 | 0.00 | 0.00 | 0.00 | 51 | 1013.2 |